RYR250 LEZL-LIMF

Flight info

Callsign RYR250
Flight time N/A
Altitude 38000
Route BUDIT M445 SOPET M985 BCN N870 DIBER UN870 SOSUR DCT ALB DCT TOP
Aircraft B38M/M-SDE1FGHILORVWXY/HB1

Departure

Time 2026-05-04 14:49
Airport Seville Airport (LEZL)

Arrival

Time N/A
Airport Turin Airport (LIMF)
Time Latitude Longitude Altitude Speed Heading
2026-05-04 14:10 37.42106 -5.90125 95 ft 0 kts 359°
2026-05-04 14:26 37.42107 -5.90125 95 ft 0 kts 359°
2026-05-04 14:36 37.42101 -5.90125 95 ft 4 kts 360°
2026-05-04 14:37 37.42074 -5.90127 96 ft 4 kts 13°
2026-05-04 14:37 37.42052 -5.90139 97 ft 4 kts 57°
2026-05-04 14:37 37.42047 -5.90153 96 ft 0 kts 89°
2026-05-04 14:40 37.42047 -5.90130 98 ft 6 kts 89°
2026-05-04 14:40 37.42048 -5.90054 97 ft 11 kts 87°
2026-05-04 14:40 37.42043 -5.89937 98 ft 14 kts 123°
2026-05-04 14:41 37.41982 -5.89824 95 ft 15 kts 98°
2026-05-04 14:41 37.41981 -5.89699 95 ft 14 kts 90°
2026-05-04 14:41 37.41982 -5.89421 93 ft 17 kts 90°
2026-05-04 14:42 37.41983 -5.89154 98 ft 14 kts 89°
2026-05-04 14:42 37.41984 -5.89034 99 ft 14 kts 89°
2026-05-04 14:42 37.41984 -5.88919 101 ft 12 kts 89°
2026-05-04 14:43 37.41984 -5.88822 105 ft 10 kts 90°
2026-05-04 14:43 37.41984 -5.88746 107 ft 8 kts 90°
2026-05-04 14:43 37.41985 -5.88668 108 ft 10 kts 89°
2026-05-04 14:43 37.41985 -5.88566 108 ft 13 kts 89°
2026-05-04 14:44 37.41986 -5.88437 108 ft 17 kts 90°
2026-05-04 14:44 37.41986 -5.88284 110 ft 18 kts 90°
2026-05-04 14:44 37.41987 -5.88114 109 ft 21 kts 90°
2026-05-04 14:44 37.41987 -5.87909 105 ft 25 kts 90°
2026-05-04 14:45 37.41988 -5.87693 107 ft 24 kts 89°
2026-05-04 14:45 37.41967 -5.87492 106 ft 19 kts 118°
2026-05-04 14:45 37.41908 -5.87430 108 ft 5 kts 164°
2026-05-04 14:45 37.41906 -5.87430 108 ft 0 kts 166°
2026-05-04 14:47 37.41900 -5.87429 108 ft 3 kts 170°
2026-05-04 14:47 37.41858 -5.87434 109 ft 9 kts 200°
2026-05-04 14:48 37.41803 -5.87509 110 ft 12 kts 252°
2026-05-04 14:48 37.41800 -5.87610 108 ft 13 kts 269°
2026-05-04 14:48 37.41799 -5.87924 108 ft 69 kts 270°
2026-05-04 14:48 37.41795 -5.88829 104 ft 132 kts 270°
2026-05-04 14:49 37.41789 -5.90170 125 ft 173 kts 268°
2026-05-04 14:49 37.41809 -5.91797 393 ft 195 kts 272°
2026-05-04 14:49 37.42190 -5.93440 1048 ft 191 kts 298°
2026-05-04 14:49 37.42900 -5.94892 1025 ft 205 kts 308°
2026-05-04 14:50 37.43943 -5.96382 1093 ft 248 kts 314°
2026-05-04 14:50 37.45223 -5.97844 2209 ft 248 kts 318°
2026-05-04 14:50 37.46559 -5.99237 2948 ft 250 kts 319°
2026-05-04 14:50 37.47900 -6.00650 3649 ft 253 kts 318°
2026-05-04 14:51 37.49238 -6.02095 4370 ft 255 kts 318°
2026-05-04 14:51 37.50589 -6.03560 5040 ft 258 kts 318°
2026-05-04 14:51 37.51957 -6.05035 5709 ft 261 kts 318°
2026-05-04 14:51 37.53343 -6.06527 6370 ft 263 kts 318°
2026-05-04 14:52 37.54831 -6.07875 6963 ft 267 kts 335°
2026-05-04 14:52 37.56661 -6.08411 7538 ft 276 kts 358°
2026-05-04 14:52 37.58567 -6.07936 8093 ft 287 kts 22°
2026-05-04 14:52 37.60186 -6.06425 8668 ft 296 kts 50°
2026-05-04 14:53 37.61146 -6.04123 9246 ft 301 kts 72°
2026-05-04 14:53 37.61699 -6.01551 9814 ft 306 kts 76°
2026-05-04 14:53 37.62192 -5.98913 10302 ft 312 kts 76°
2026-05-04 14:53 37.62723 -5.96207 10620 ft 325 kts 75°
2026-05-04 14:54 37.63307 -5.93388 10846 ft 340 kts 75°
2026-05-04 14:54 37.63914 -5.90435 11005 ft 356 kts 75°
2026-05-04 14:54 37.64537 -5.87331 11118 ft 374 kts 76°
2026-05-04 14:54 37.65184 -5.84094 11385 ft 385 kts 75°
2026-05-04 14:55 37.65853 -5.80771 11790 ft 393 kts 75°
2026-05-04 14:55 37.66535 -5.77397 12235 ft 399 kts 75°
2026-05-04 14:55 37.67213 -5.74018 12702 ft 404 kts 75°
2026-05-04 14:55 37.67903 -5.70562 13199 ft 409 kts 75°
2026-05-04 14:56 37.68603 -5.67064 13707 ft 412 kts 75°
2026-05-04 14:56 37.69308 -5.63535 14166 ft 416 kts 75°
2026-05-04 14:56 37.70018 -5.59972 14620 ft 420 kts 75°
2026-05-04 14:56 37.70733 -5.56380 15079 ft 424 kts 75°
2026-05-04 14:57 37.71454 -5.52751 15515 ft 428 kts 75°
2026-05-04 14:57 37.72182 -5.49081 15943 ft 432 kts 75°
2026-05-04 14:57 37.72913 -5.45385 16394 ft 436 kts 75°
2026-05-04 14:57 37.73651 -5.41650 16802 ft 440 kts 75°
2026-05-04 14:58 37.74395 -5.37878 17230 ft 444 kts 75°
2026-05-04 14:58 37.75144 -5.34076 17657 ft 447 kts 75°
2026-05-04 14:58 37.75898 -5.30239 18059 ft 451 kts 76°
2026-05-04 14:58 37.76647 -5.26421 18432 ft 455 kts 76°
2026-05-04 14:59 37.77409 -5.22524 18793 ft 459 kts 75°
2026-05-04 14:59 37.78178 -5.18594 19153 ft 462 kts 76°